Cloud_Cover
0 0 2 24 33 90 99 100 100 96 98 100 100 100 100 100 100 100 100 100 100 100 100 100 100 100 100 100 100 100 100 100 100 100 100 100 100 100 100 100 100 100 100 100
0 1 34 8 100 97 100 100 100 100 100 100 100 100 100 100 100 100 100 100 100 100 100 100 100 100 100 100 100 100 100 100 100 100 100 100 100 100 100 100 98 100 100 100
4 0 1 91 81 100 100 100 100 100 100 100 100 100 100 100 100 100 100 100 100 100 100 100 100 100 100 100 100 100 100 100 100 100 100 100 100 100 100 100 100 100 100 98
5 4 4 40 47 89 73 98 100 100 100 100 100 100 100 100 100 100 100 100 100 100 100 100 100 100 100 100 100 100 100 100 100 100 100 100 100 100 100 100 100 100 97 100
96 5 28 73 99 74 99 63 100 100 100 100 100 100 100 100 100 100 100 100 100 100 100 100 100 100 100 100 100 100 100 100 100 100 100 100 100 100 100 100 100 100 100 97
66 82 59 15 100 28 100 75 100 100 100 100 100 100 100 100 100 100 100 100 100 100 100 100 100 100 100 100 100 100 100 100 100 100 100 98 98 100 100 100 100 100 100 100
34 91 5 5 81 5 100 31 100 100 100 100 100 100 100 100 100 100 100 100 100 100 100 100 100 100 100 100 100 100 100 100 100 100 100 100 100 95 100 100 100 100 100 100
35 23 4 5 54 29 95 100 100 100 100 100 100 100 100 100 100 100 100 100 100 100 100 100 100 100 100 100 100 100 100 100 100 100 100 100 91 68 100 100 100 100 100 100
5 5 5 5 74 99 100 100 100 100 100 100 100 100 96 100 100 100 100 100 100 100 100 100 100 100 100 100 100 100 100 100 100 100 100 100 100 100 95 98 100 100 100 100
5 5 11 5 87 100 100 100 100 100 100 100 100 99 87 100 100 100 100 100 100 100 100 100 100 100 100 100 100 100 100 100 100 100 100 100 100 100 100 99 100 100 100 100
5 5 8 18 100 98 100 100 100 100 100 100 85 82 81 100 100 100 100 100 100 100 100 100 100 100 100 100 100 100 100 100 100 100 100 100 100 99 100 100 100 100 100 100
5 5 5 11 70 79 100 100 100 100 100 100 100 47 95 100 100 100 100 100 100 100 100 100 100 100 89 99 84 100 100 100 100 100 96 98 99 100 100 99 100 100 100 100
66 98 44 65 100 91 100 100 100 100 100 100 100 56 100 100 100 100 100 100 100 100 100 100 100 100 80 100 56 73 100 100 100 100 96 87 88 98 100 100 100 96 100 100
100 100 100 90 50 100 82 100 84 100 100 100 100 88 99 100 100 100 100 100 100 100 100 100 100 100 100 54 22 5 71 100 100 100 100 90 91 88 100 100 100 100 98 100
99 100 78 88 98 86 43 100 78 90 100 100 100 100 94 79 93 100 100 100 100 100 100 100 100 100 100 100 100 100 77 82 68 58 70 68 72 100 96 97 98 97 98 57
82 97 93 87 100 100 100 100 100 95 99 100 100 100 100 85 75 61 100 99 100 100 86 98 100 100 100 100 100 90 80 96 41 40 57 97 86 67 70 84 97 100 100 100
99 91 94 100 100 100 100 100 100 100 100 100 100 100 100 100 59 84 76 97 100 100 96 100 100 100 100 100 85 100 100 67 78 99 100 87 75 95 90 90 100 100 100 100
97 91 100 100 100 100 100 100 100 100 100 100 100 100 100 100 100 100 76 77 100 100 100 100 100 100 98 78 97 100 100 100 100 100 66 100 83 74 80 92 100 100 100 87
99 90 100 100 100 100 100 100 100 100 100 98 98 82 87 100 100 99 100 61 85 98 100 100 100 98 100 100 97 100 88 75 92 77 70 68 70 66 74 80 91 94 92 96
98 77 67 92 100 100 100 100 100 100 100 100 100 96 81 100 100 95 100 100 100 100 93 100 100 100 100 98 100 100 99 88 80 93 100 95 97 82 74 74 73 90 88 96
100 96 98 100 74 49 99 100 100 100 100 100 100 100 100 100 100 100 100 100 100 100 100 94 92 100 100 100 100 100 100 100 100 100 100 96 100 83 82 94 81 92 100 98
69 88 92 54 27 13 51 80 96 85 100 100 100 100 100 100 100 100 99 100 100 100 100 100 100 97 100 100 100 100 100 100 100 100 100 100 98 86 88 95 94 91 82 86
83 37 40 24 44 70 82 43 71 51 60 94 100 100 100 100 100 100 100 99 90 95 97 97 97 100 100 100 100 94 100 100 100 100 100 99 98 93 99 100 100 96 98 100
55 28 20 14 5 60 45 54 48 74 86 99 100 98 85 100 100 100 100 100 100 100 100 100 100 100 100 100 100 100 100 100 100 100 100 99 81 93 99 100 100 100 100 100
9 29 57 47 61 89 99 88 53 83 90 88 68 87 89 77 54 90 100 100 86 95 100 100 100 100 100 100 100 100 100 100 100 100 100 100 100 100 100 100 100 100 100 100
75 59 57 6 19 81 92 72 91 95 82 100 92 100 100 100 96 93 91 86 69 82 100 96 84 99 100 100 100 100 100 100 100 100 100 100 100 100 100 100 100 100 100 100
77 67 75 67 73 76 72 45 15 57 91 97 96 100 100 100 98 85 90 97 100 100 100 97 87 78 75 82 95 100 100 100 100 100 100 100 100 100 100 100 100 100 100 100